This is the latest recevied weather packets stored in our database for station/object SV9TNF-56. If no packets are shown the sender has not sent any weather packets the latest 10 day(s).
| Time | Temp. | Humidity | Pressure | Rain* | Wind** | Luminosity | Snow |
|---|---|---|---|---|---|---|---|
| 1788438859 | 26.11° C | 61% | 1008.8 hPa | 0 mm | 19.67 m/s, 97° | - | - |
| 1788438554 | 26.11° C | 60% | 1009.1 hPa | 0 mm | 14.75 m/s, 120° | - | - |
| 1788438254 | 26.11° C | 60% | 1008.8 hPa | 0 mm | 18.33 m/s, 204° | - | - |
| 1788437954 | 26.11° C | 60% | 1008.8 hPa | 0 mm | 13.86 m/s, 72° | - | - |
| 1788437653 | 26.11° C | 60% | 1008.8 hPa | 0 mm | 25.93 m/s, 122° | - | - |
| 1788437353 | 26.11° C | 62% | 1009.1 hPa | 0 mm | 24.59 m/s, 94° | - | - |
| 1788437053 | 26.11° C | 60% | 1009.1 hPa | 0 mm | 24.59 m/s, 144° | - | - |
| 1788436753 | 26.11° C | 59% | 1009.1 hPa | 0 mm | 25.48 m/s, 149° | - | - |
| 1788436453 | 26.11° C | 60% | 1009.1 hPa | 0 mm | 8.94 m/s, 146° | - | - |
| 1788436153 | 26.11° C | 60% | 1009.1 hPa | 0 mm | 11.18 m/s, 272° | - | - |
| 1788435853 | 26.11° C | 60% | 1009.1 hPa | 0 mm | 12.52 m/s, 144° | - | - |
| 1788435553 | 26.11° C | 61% | 1009.1 hPa | 0 mm | 14.75 m/s, 204° | - | - |
| 1788435253 | 26.11° C | 62% | 1009.1 hPa | 0 mm | 16.54 m/s, 42° | - | - |
| 1788434953 | 26.11° C | 60% | 1009.1 hPa | 0 mm | 22.8 m/s, 115° | - | - |
| 1788434653 | 26.11° C | 60% | 1009.1 hPa | 0 mm | 9.83 m/s, 263° | - | - |
| 1788434352 | 26.11° C | 59% | 1009.5 hPa | 0 mm | 14.31 m/s, 132° | - | - |
| 1788434052 | 26.11° C | 57% | 1009.5 hPa | 0 mm | 12.96 m/s, 114° | - | - |
| 1788433752 | 26.11° C | 57% | 1009.1 hPa | 0 mm | 21.9 m/s, 178° | - | - |
| 1788433452 | 26.11° C | 57% | 1009.5 hPa | 0 mm | 19.67 m/s, 252° | - | - |
| 1788433152 | 26.67° C | 56% | 1009.1 hPa | 0 mm | 16.09 m/s, 168° | - | - |
| 1788432852 | 26.11° C | 57% | 1009.1 hPa | 0 mm | 9.83 m/s, 251° | - | - |
| 1788432551 | 26.11° C | 56% | 1009.1 hPa | 0 mm | 21.46 m/s, 108° | - | - |
| 1788432252 | 26.11° C | 56% | 1009.1 hPa | 0 mm | 19.67 m/s, 252° | - | - |
| 1788431951 | 26.11° C | 57% | 1009.1 hPa | 0 mm | 20.56 m/s, 174° | - | - |
| 1788431651 | 26.11° C | 59% | 1009.5 hPa | 0 mm | 16.99 m/s, 186° | - | - |
* Rain latest hour (hover to see other rain measurements)
** Current wind speed in m/s (hover to see current wind gust speed)